Snowfall_Accumulation
0.0 0.0 0.0 0.0 0.0 0.0 0.0 0.0 0.0 0.0 0.0 0.0 0.0 0.0 0.0 0.0 0.0 0.0 0.0 0.0 0.0 0.0 0.0 0.0 0.0 0.0 0.0 0.0 0.0 0.0 0.0 0.0 0.0 0.0 0.0 0.0 0.0 0.0 0.0 0.0 0.0 0.0 0.0
0.0 0.0 0.0 0.0 0.0 0.0 0.0 0.0 0.0 0.0 0.0 0.0 0.0 0.0 0.0 0.0 0.0 0.0 0.0 0.0 0.0 0.0 0.0 0.0 0.0 0.0 0.0 0.0 0.0 0.0 0.0 0.0 0.0 0.0 0.0 0.0 0.0 0.0 0.0 0.0 0.0 0.0 0.0
0.0 0.0 0.0 0.0 0.0 0.0 0.0 0.0 0.0 0.0 0.0 0.0 0.0 0.0 0.0 0.0 0.0 0.0 0.0 0.0 0.0 0.0 0.0 0.0 0.0 0.0 0.0 0.0 0.0 0.0 0.0 0.0 0.0 0.0 0.0 0.0 0.0 0.0 0.0 0.0 0.0 0.0 0.0
0.0 0.0 0.0 0.0 0.0 0.0 0.0 0.0 0.0 0.0 0.0 0.0 0.0 0.0 0.0 0.0 0.0 0.0 0.0 0.0 0.0 0.0 0.0 0.0 0.0 0.0 0.0 0.0 0.0 0.0 0.0 0.0 0.0 0.0 0.0 0.0 0.0 0.0 0.0 0.0 0.0 0.0 0.0
0.0 0.1 0.1 0.1 0.0 0.0 0.0 0.0 0.0 0.0 0.0 0.0 0.0 0.0 0.0 0.0 0.0 0.0 0.0 0.0 0.0 0.0 0.0 0.0 0.0 0.0 0.0 0.0 0.0 0.0 0.0 0.0 0.0 0.0 0.0 0.0 0.0 0.0 0.0 0.0 0.0 0.0 0.0
0.1 0.0 0.0 0.1 0.1 0.0 0.0 0.0 0.0 0.0 0.0 0.3 0.6 1.2 2.1 1.2 0.1 0.0 0.0 0.0 0.0 0.0 0.0 0.0 0.0 0.0 0.0 0.0 0.0 0.0 0.0 0.0 0.0 0.0 0.0 0.0 0.0 0.0 0.0 0.0 0.0 0.0 0.0
1.0 0.7 0.8 0.9 0.9 0.6 0.3 0.1 0.1 0.2 0.2 0.6 1.0 1.5 2.4 3.4 4.5 3.0 1.8 1.8 1.0 0.0 0.0 0.0 0.0 0.0 0.0 0.0 0.0 0.0 0.0 0.0 0.0 0.0 0.0 0.0 0.0 0.0 0.0 0.0 0.0 0.0 0.0
1.6 2.4 3.0 2.8 2.6 2.1 2.2 1.9 1.3 1.0 1.2 1.3 1.5 1.4 1.2 1.4 2.1 2.7 3.4 1.7 2.0 1.7 0.8 0.3 0.0 0.0 0.0 0.0 0.0 0.0 0.0 0.0 0.0 0.0 0.0 0.0 0.0 0.0 0.0 0.0 0.1 0.2 0.0
4.0 4.0 3.6 4.1 4.4 6.0 5.6 4.0 3.3 3.0 2.2 1.2 1.0 1.0 1.0 0.9 1.2 1.6 2.0 2.4 2.2 1.1 1.0 0.3 0.2 0.0 0.0 0.0 0.0 0.0 0.0 0.0 0.0 0.0 0.0 0.0 0.0 0.0 0.0 0.0 0.1 0.3 0.3
4.1 5.3 5.6 5.6 4.9 5.6 7.5 8.7 8.6 7.2 5.7 3.8 2.4 1.3 1.1 0.7 0.6 0.5 0.8 0.9 1.2 1.7 1.2 0.6 0.2 0.0 0.0 0.0 0.0 0.0 0.0 0.0 0.0 0.0 0.0 0.0 0.0 0.0 0.0 0.0 0.0 0.0 0.3
5.5 5.9 6.6 6.7 7.0 4.9 5.2 6.8 6.9 6.4 4.9 3.6 2.9 2.7 2.2 1.3 0.9 0.8 0.5 0.1 0.1 0.6 1.4 1.7 0.8 0.1 0.0 0.0 0.0 0.0 0.0 0.0 0.0 0.0 0.0 0.0 0.0 0.0 0.0 0.0 0.1 0.1 0.0
8.2 8.3 8.4 8.3 7.5 7.6 6.4 5.9 6.0 6.1 6.1 5.5 4.4 3.7 3.2 2.9 2.3 1.1 0.7 0.6 0.5 0.3 0.4 0.5 0.9 0.8 0.3 0.1 0.0 0.0 0.0 0.0 0.0 0.0 0.0 0.0 0.0 0.0 0.5 0.0 0.2 0.1 1.1
6.6 7.1 7.0 8.4 10.2 10.2 9.6 8.1 6.6 6.4 5.4 4.9 4.9 4.3 4.2 4.0 3.9 3.6 3.0 2.4 1.4 0.5 0.4 0.4 0.4 0.6 0.8 0.6 0.3 0.1 0.1 0.0 0.0 0.0 0.0 0.0 0.0 0.0 0.4 0.2 0.1 0.6 0.1
8.6 8.8 8.8 9.3 10.0 10.9 12.3 11.0 8.6 6.7 6.5 5.5 4.7 3.6 4.0 3.8 3.5 3.0 3.0 3.1 3.0 2.8 2.2 1.4 0.9 0.8 0.6 0.5 0.5 0.5 0.3 0.1 0.0 0.0 0.0 0.4 1.0 0.0 0.5 0.6 0.3 0.1 0.1
7.7 8.6 10.0 10.7 11.0 11.5 11.6 12.5 11.1 9.3 6.5 6.7 6.1 5.3 4.4 3.8 3.6 3.4 3.1 2.5 2.3 2.3 2.4 2.5 2.3 1.8 1.5 1.1 0.8 0.7 0.5 1.0 0.5 1.4 1.4 1.1 0.6 0.2 0.4 1.2 1.2 1.6 1.7
9.8 9.5 9.3 9.2 9.6 11.2 12.2 12.6 13.9 12.6 11.7 9.6 9.0 6.4 4.8 4.3 3.6 3.4 3.3 3.5 3.5 3.2 2.9 2.6 2.2 1.8 1.4 1.2 1.2 1.4 1.5 1.3 1.1 3.0 1.6 1.8 1.1 0.3 0.2 0.1 0.2 0.6 3.3
10.9 9.7 9.9 10.3 10.7 11.3 13.1 13.6 14.3 13.4 12.4 13.6 10.5 8.7 6.8 5.1 4.4 3.3 3.2 3.1 2.9 3.0 3.2 3.0 2.8 2.7 2.2 1.8 2.3 2.8 6.4 5.1 3.5 2.2 1.6 0.7 0.3 0.2 0.0 0.1 0.1 0.3 0.3
10.9 9.9 9.1 8.4 8.4 8.7 9.1 9.9 9.9 12.0 13.4 13.6 13.2 10.5 10.7 7.0 5.4 4.9 4.0 2.7 2.8 2.7 2.3 2.0 3.2 3.9 1.1 1.0 2.4 3.2 4.6 4.4 1.9 0.7 0.3 0.2 0.2 0.1 0.3 0.4 1.7 0.4 0.2
11.3 11.8 11.8 10.6 9.0 8.6 8.3 8.4 8.1 9.3 10.3 11.1 12.7 12.5 12.2 13.3 10.3 6.9 7.8 5.4 3.4 4.8 3.1 4.1 3.8 3.1 1.6 0.6 1.7 2.3 2.7 2.1 0.8 0.3 0.4 0.3 0.3 0.2 0.5 2.4 3.4 1.4 0.3
9.2 9.3 8.2 8.1 6.8 7.9 8.1 8.6 9.0 8.2 9.2 11.0 12.3 12.8 13.3 17.9 17.9 11.6 11.3 9.6 6.0 3.8 2.7 6.4 1.2 0.9 1.2 0.2 1.0 1.9 3.1 3.5 1.2 0.3 0.1 0.1 0.2 0.2 0.7 1.2 2.6 3.4 0.5
6.6 6.6 6.2 7.5 8.9 8.3 8.2 8.9 8.8 11.8 13.3 11.4 10.5 12.2 14.3 15.8 18.6 19.4 14.9 16.5 8.8 3.7 2.4 2.1 0.7 0.8 0.8 0.2 0.2 0.7 2.2 3.3 3.2 1.7 0.5 0.2 0.2 0.7 0.3 0.7 1.9 3.1 0.2
2.7 3.1 3.8 3.9 4.2 4.4 5.5 6.7 10.8 12.1 10.2 9.6 12.2 12.0 12.1 12.3 12.8 16.0 16.1 14.3 18.0 15.4 10.0 8.6 2.4 0.6 0.3 0.2 0.1 0.4 0.4 0.6 3.9 3.2 0.8 0.5 0.7 0.4 0.6 0.9 1.5 1.6 2.0
1.6 2.1 3.0 3.2 2.6 2.7 4.2 7.7 7.5 8.4 7.1 6.6 9.4 10.8 11.0 11.3 11.2 11.6 14.6 15.7 15.1 17.6 18.1 15.1 13.5 6.5 1.4 0.4 0.3 0.3 0.4 0.6 1.1 1.8 2.2 1.2 0.6 0.7 0.8 1.3 2.0 2.5 3.1
0.1 0.2 0.8 1.4 1.6 2.0 2.4 3.9 4.0 3.9 4.9 6.3 7.1 8.4 10.6 11.3 10.9 10.5 10.7 12.7 15.0 18.5 19.0 18.3 18.3 15.3 10.6 4.8 1.4 1.3 2.0 1.4 1.0 1.3 1.6 2.4 2.8 2.8 3.4 3.0 2.2 1.2 1.7
0.0 0.0 0.2 0.4 0.7 0.7 1.2 1.2 1.4 1.8 3.3 5.0 5.9 7.1 8.2 10.5 10.6 11.7 15.6 17.9 17.4 19.4 25.5 25.7 22.4 22.0 20.6 15.5 6.9 5.8 5.0 4.3 4.1 3.9 3.9 1.7 1.5 0.8 0.4 0.3 0.5 0.6 1.1
0.7 0.4 0.2 0.1 0.3 0.6 1.5 1.5 1.8 2.3 3.7 5.0 6.3 7.5 8.6 9.8 9.3 9.5 8.5 6.1 9.4 11.8 13.8 16.4 25.2 25.3 14.0 9.7 8.6 7.7 6.2 5.0 6.3 13.9 10.2 4.4 2.1 1.8 1.4 1.5 1.9 2.1 2.7